Wetbulb
47.02 43.83 42.39 45.52 48.22 47.19 45.75 43.57 42.10 44.49 47.34 46.45 46.20 46.05 49.49 52.51 52.68 52.89 53.87 54.48 55.61 56.98 58.43 58.74 60.36 61.81 62.91 64.55 66.58 68.03 70.92 74.69 75.47 74.55 74.36 74.40 74.40 75.24 75.29 75.22 75.80 76.00 76.30 76.53
44.44 41.63 46.35 47.73 48.48 46.77 45.54 43.23 42.80 46.10 47.45 48.13 46.49 46.10 49.34 51.71 51.90 53.01 53.66 54.63 56.90 58.37 59.91 61.42 62.10 62.03 62.42 64.77 65.94 66.62 69.59 73.25 75.22 74.23 74.58 74.51 75.20 75.53 75.55 74.74 75.46 76.38 76.36 76.53
42.90 44.73 47.78 46.99 46.26 45.53 45.28 43.98 44.01 43.88 46.71 47.95 46.18 44.63 47.80 49.92 52.47 53.13 55.82 57.18 58.00 58.65 59.86 61.79 62.82 63.80 63.85 63.22 64.73 67.47 68.54 71.92 74.87 74.87 74.96 75.12 75.46 75.40 74.07 74.45 75.15 75.82 76.40 76.28
44.80 47.88 47.28 46.67 45.48 46.71 43.73 46.74 45.95 45.24 43.35 40.15 47.41 40.25 47.00 48.89 49.65 51.67 54.80 55.76 57.67 59.16 61.27 62.51 63.34 63.60 63.89 63.96 63.63 63.34 68.33 71.61 73.11 74.75 74.44 74.37 72.66 72.32 73.40 74.61 75.47 74.93 74.83 74.34
44.94 46.22 46.25 45.44 46.18 47.74 44.83 47.14 45.58 46.03 45.24 44.66 43.79 41.10 45.90 49.08 47.25 50.89 53.85 55.79 57.96 59.48 60.55 61.63 62.93 63.97 65.12 66.07 65.73 66.11 67.18 69.94 71.92 73.17 73.94 73.23 73.09 73.06 73.39 73.14 72.83 72.70 71.74 70.99
47.19 50.07 48.56 47.87 48.19 48.23 48.40 46.82 46.57 46.58 45.75 40.06 43.83 42.80 43.54 46.10 47.43 52.33 54.04 55.55 56.76 58.22 59.45 60.61 62.58 63.91 64.71 66.84 68.38 68.71 68.87 69.51 70.38 71.69 73.00 73.53 72.96 72.34 70.88 70.25 69.24 68.44 68.38 69.16
45.52 46.29 48.88 49.53 46.51 48.37 48.09 45.86 39.88 37.85 38.91 38.50 45.22 42.73 44.83 50.55 51.98 52.77 53.45 54.48 56.15 57.57 58.38 58.83 59.64 60.67 62.35 64.01 65.71 66.97 67.95 67.81 68.71 68.94 69.32 70.05 70.73 70.41 69.68 68.75 66.57 66.51 65.22 65.48
41.09 39.54 46.49 49.29 48.14 46.13 46.57 46.16 40.84 34.65 36.92 39.95 44.45 40.07 46.37 51.66 53.35 54.49 55.19 56.13 56.86 57.16 58.37 58.67 58.78 59.44 59.84 60.68 61.88 62.75 63.39 63.84 64.83 65.29 65.72 66.57 66.37 66.27 66.76 66.49 66.08 64.33 63.96 64.70
41.94 42.09 48.69 49.60 49.77 49.49 46.68 43.75 47.79 42.29 43.21 39.97 42.64 45.61 49.74 51.62 51.84 53.07 53.05 53.79 54.22 55.46 56.07 57.65 59.14 59.31 59.67 60.58 61.64 62.00 62.58 62.47 62.62 63.25 64.00 64.76 65.06 65.44 65.14 66.61 67.46 64.95 66.84 65.22
46.79 41.99 47.26 48.65 50.82 50.21 49.13 49.77 42.39 43.46 35.44 34.88 40.24 41.72 44.91 48.61 50.31 51.75 51.91 52.30 53.39 55.12 56.05 57.20 58.32 59.53 60.15 60.18 60.56 60.65 60.93 60.33 60.42 60.96 61.09 61.02 61.89 62.00 63.19 63.82 63.54 64.33 65.67 66.28
49.19 46.81 45.08 48.30 46.18 46.00 46.67 45.41 45.93 46.59 44.59 38.36 37.21 43.27 50.00 50.79 52.34 51.87 52.53 52.79 53.90 54.62 55.39 56.03 56.90 58.31 58.51 58.79 58.51 58.61 58.58 58.18 58.34 58.56 58.93 59.27 59.30 59.38 59.85 60.13 61.17 62.37 63.61 63.82
49.51 47.25 42.60 43.62 47.51 48.60 48.41 47.15 47.02 42.39 39.73 42.88 42.12 42.29 51.91 52.77 54.05 53.54 52.83 53.30 53.89 54.92 55.12 55.30 55.51 55.99 56.06 55.75 55.99 56.33 56.86 56.63 56.84 57.06 57.18 57.52 58.16 58.48 58.72 59.17 59.55 59.92 59.65 60.38
49.40 44.65 38.85 40.24 44.24 46.46 45.28 46.57 47.16 46.58 46.86 41.90 39.21 42.82 51.23 52.65 52.44 53.50 53.11 53.60 53.07 53.05 53.53 54.71 55.67 55.06 55.19 54.99 55.12 55.38 55.86 55.99 56.20 55.98 55.89 56.54 56.67 57.03 57.13 57.54 57.92 58.30 58.30 58.31
51.61 47.04 43.14 37.69 40.79 46.05 42.59 44.35 46.13 46.05 41.90 41.76 42.44 44.36 47.86 49.51 49.67 51.05 51.94 52.30 52.32 52.51 51.64 53.98 55.36 55.06 54.62 54.54 54.95 55.12 55.29 55.39 55.28 54.96 54.91 55.03 55.67 55.97 56.02 56.20 56.27 56.37 56.31 55.86
50.03 43.65 44.72 43.15 42.86 42.90 42.61 42.40 43.18 41.95 43.50 39.56 42.19 41.86 45.02 47.12 47.84 49.67 51.34 51.52 51.33 51.57 51.73 52.92 52.93 53.54 54.25 54.61 54.60 54.61 54.37 54.54 54.74 53.73 53.51 53.90 54.73 54.98 54.86 54.67 54.87 55.07 54.91 54.72
48.18 42.97 43.79 40.58 41.32 41.40 39.82 41.98 42.19 42.28 42.44 42.14 42.70 42.13 47.62 49.09 50.56 49.90 50.96 50.60 50.11 50.52 51.01 51.92 52.59 53.07 53.29 53.51 53.58 53.55 53.61 53.74 53.91 52.85 52.54 53.12 53.19 53.24 53.19 53.24 53.20 53.43 53.19 53.55
46.52 44.56 41.46 37.54 40.45 39.73 36.58 41.01 42.01 42.78 43.82 43.09 39.92 44.64 48.56 47.82 49.03 49.59 50.19 50.63 50.56 51.28 51.93 52.04 52.56 52.84 53.33 53.59 53.78 53.01 53.26 53.50 52.58 51.86 51.95 51.84 51.98 51.25 51.42 51.87 51.62 51.88 52.30 53.30
45.92 44.93 43.20 39.83 38.56 30.49 41.24 45.39 44.29 42.76 43.87 45.85 45.99 47.05 48.11 49.56 50.95 51.33 52.08 51.37 50.98 51.28 51.58 52.45 52.97 53.23 53.65 53.70 53.41 53.43 52.86 51.88 51.23 50.84 50.77 50.82 50.49 49.84 50.23 50.44 50.67 51.23 50.30 48.92
48.65 45.09 39.70 36.35 36.01 39.62 41.30 43.82 43.41 42.61 43.29 47.61 47.07 48.19 49.21 50.06 50.46 50.29 52.24 51.84 51.70 51.99 52.37 52.61 53.26 52.98 52.86 52.46 52.68 51.89 51.08 50.80 49.83 49.35 49.38 49.42 49.39 48.75 48.88 48.77 47.19 46.91 46.62 44.13
46.09 46.22 41.54 39.14 31.58 31.40 42.06 45.88 48.54 47.54 39.02 47.98 47.96 47.67 47.62 47.20 43.10 46.17 50.87 52.44 52.19 52.62 52.76 52.20 52.51 52.22 52.00 52.03 51.93 50.19 49.26 48.67 48.07 48.15 48.16 48.56 48.30 46.84 45.00 44.90 44.40 40.40 40.57 40.13
40.39 41.30 37.82 37.04 35.69 39.55 45.47 46.77 48.43 36.79 40.43 48.04 48.35 48.59 48.51 46.90 48.18 49.67 52.40 51.95 52.36 52.11 51.99 52.23 51.42 50.84 51.11 51.37 50.05 48.27 47.80 46.94 47.81 48.22 47.48 46.11 44.81 43.22 43.10 39.25 38.81 39.85 39.79 39.46
39.31 38.45 37.14 36.95 32.51 31.47 47.73 46.38 40.92 47.15 49.45 48.99 49.02 49.50 48.88 49.87 50.24 49.41 50.34 50.91 50.98 50.54 50.62 50.85 49.98 49.86 50.10 49.40 48.28 46.73 45.88 47.46 46.99 44.58 42.50 41.89 41.63 38.42 38.48 38.05 38.24 38.24 38.44 38.60
40.42 44.02 41.54 41.73 42.06 47.79 48.89 48.48 49.97 49.63 48.13 48.61 48.78 49.93 50.09 48.97 49.20 49.36 49.48 49.88 49.80 49.66 49.89 50.23 48.98 47.77 48.02 47.98 47.17 45.19 45.49 43.47 41.51 40.46 39.84 37.69 37.12 36.76 37.07 36.40 36.04 35.76 37.10 36.86
44.49 46.45 44.26 42.33 45.48 46.20 47.83 49.28 49.18 49.43 48.86 49.71 50.37 49.96 49.40 48.24 48.69 48.36 48.57 48.46 48.53 48.90 48.45 48.22 46.69 45.73 45.16 46.35 45.54 42.85 41.19 40.45 39.27 36.73 35.58 35.36 35.23 35.21 35.88 35.70 35.53 35.46 35.69 35.47
44.70 45.71 43.36 42.72 45.31 44.93 45.92 47.08 47.96 48.59 49.69 49.38 49.36 48.92 48.12 47.70 47.17 47.45 47.12 47.36 47.22 47.14 46.71 46.14 44.72 44.40 43.90 43.47 40.74 40.18 39.63 37.61 34.62 34.17 34.29 34.53 34.31 33.98 34.07 34.26 35.06 35.69 37.07 36.59
44.39 42.44 41.69 42.18 44.84 45.54 45.69 48.43 48.82 47.96 47.49 47.36 46.61 46.91 47.58 47.28 46.28 46.27 45.53 45.80 45.39 44.81 44.40 44.05 43.86 41.67 39.33 38.92 37.93 38.44 35.20 34.18 33.12 32.38 32.42 32.37 32.66 33.02 33.40 33.61 34.47 36.68 36.19 36.40
MSLP
1007.33 1006.62 1005.37 1005.39 1005.26 1005.16 1005.71 1006.54 1007.46 1007.69 1007.82 1008.04 1007.57 1006.93 1005.26 1004.49 1004.11 1003.59 1003.65 1004.17 1004.36 1004.67 1005.04 1005.28 1005.59 1005.79 1005.89 1006.16 1006.45 1006.59 1006.84 1007.22 1007.84 1008.16 1008.26 1008.40 1008.37 1008.84 1009.08 1009.49 1009.94 1010.48 1010.89 1011.02
1006.74 1005.63 1005.32 1005.44 1005.43 1005.36 1005.90 1006.55 1006.57 1006.79 1006.96 1006.75 1005.84 1005.82 1005.14 1003.99 1004.04 1003.65 1004.09 1004.66 1005.07 1005.25 1005.33 1005.65 1005.71 1005.66 1005.76 1006.04 1006.21 1006.54 1006.67 1007.02 1007.56 1007.74 1007.93 1007.77 1007.86 1008.07 1008.47 1008.96 1009.58 1010.13 1010.44 1010.74
1004.98 1004.88 1004.84 1005.19 1005.39 1005.53 1005.58 1005.59 1005.40 1005.20 1006.34 1006.16 1005.81 1005.55 1004.44 1004.36 1004.19 1004.34 1004.87 1005.49 1005.60 1005.81 1005.89 1005.94 1005.95 1006.06 1006.24 1006.41 1006.42 1006.27 1006.47 1006.79 1007.24 1007.60 1007.83 1008.14 1008.12 1007.98 1008.38 1008.56 1009.12 1009.82 1010.05 1010.34
1004.50 1004.54 1004.88 1004.92 1004.82 1005.11 1004.63 1005.37 1005.23 1005.47 1006.08 1005.13 1005.13 1003.49 1003.23 1003.40 1003.92 1004.36 1005.24 1005.48 1005.80 1006.12 1006.14 1006.23 1006.33 1006.61 1006.69 1006.70 1006.60 1006.47 1006.40 1006.56 1006.91 1007.46 1007.41 1007.88 1007.57 1007.58 1007.55 1007.70 1008.44 1009.43 1009.81 1010.09
1003.71 1004.12 1004.38 1004.14 1004.11 1004.76 1004.28 1005.11 1005.28 1005.35 1004.95 1004.64 1004.67 1004.35 1002.77 1003.81 1003.98 1004.45 1005.84 1006.04 1006.21 1006.43 1006.60 1006.60 1006.68 1006.71 1006.69 1006.58 1006.59 1006.64 1006.73 1007.02 1007.23 1007.64 1007.65 1007.67 1007.83 1007.46 1008.11 1008.31 1009.37 1009.26 1009.79 1010.03
1003.63 1004.09 1004.09 1003.72 1004.13 1004.53 1004.66 1004.91 1004.95 1005.12 1004.35 1004.08 1003.72 1004.04 1002.59 1003.39 1003.94 1005.23 1006.00 1006.48 1006.90 1006.90 1006.98 1006.95 1007.02 1007.21 1007.17 1006.95 1006.95 1007.09 1007.28 1007.46 1007.69 1007.90 1008.00 1008.00 1008.10 1008.22 1008.17 1008.76 1008.86 1008.98 1009.43 1009.82
1003.80 1003.88 1004.03 1003.93 1004.01 1004.44 1004.65 1004.19 1003.63 1004.06 1003.51 1002.98 1003.36 1003.91 1003.18 1004.43 1005.42 1005.92 1006.55 1007.11 1007.16 1007.10 1007.17 1007.24 1007.37 1007.47 1007.70 1007.72 1007.63 1007.75 1007.97 1008.13 1008.24 1008.22 1008.23 1008.32 1008.60 1008.72 1008.65 1008.41 1008.52 1008.70 1009.06 1009.35
1002.93 1003.48 1003.82 1003.95 1003.37 1003.54 1003.89 1003.80 1002.35 1002.62 1002.33 1002.36 1003.94 1003.43 1003.42 1005.45 1006.41 1006.89 1007.11 1007.20 1007.32 1007.32 1007.36 1007.48 1007.78 1007.92 1008.17 1008.34 1008.23 1008.40 1008.72 1008.78 1008.92 1008.93 1009.11 1009.29 1009.32 1008.69 1008.50 1008.88 1008.64 1008.87 1008.97 1009.19
1002.28 1002.80 1004.11 1004.25 1004.01 1003.75 1003.60 1003.97 1004.00 1003.60 1004.02 1003.46 1002.83 1004.20 1005.40 1006.20 1006.66 1007.03 1007.27 1007.45 1007.74 1007.94 1008.00 1007.88 1007.98 1008.18 1008.50 1008.81 1009.35 1009.43 1009.23 1009.37 1009.56 1009.56 1009.65 1009.74 1009.73 1009.63 1009.38 1009.66 1009.73 1009.33 1009.48 1009.35
1002.70 1002.98 1004.29 1004.84 1004.81 1004.81 1004.14 1003.91 1004.56 1004.48 1003.77 1003.33 1002.88 1003.54 1003.75 1005.45 1006.29 1007.05 1007.42 1007.82 1008.21 1008.30 1008.25 1008.38 1008.46 1008.82 1009.18 1009.48 1009.87 1009.98 1009.83 1009.93 1010.12 1010.08 1010.14 1010.21 1010.27 1010.24 1010.25 1010.18 1010.24 1010.11 1009.86 1009.82
1003.17 1003.05 1004.77 1005.00 1004.51 1003.75 1004.65 1004.14 1004.27 1004.06 1003.97 1003.70 1003.68 1003.39 1004.34 1004.74 1005.88 1006.85 1007.46 1008.19 1008.42 1008.42 1008.28 1008.40 1008.64 1009.17 1009.45 1009.74 1010.01 1010.29 1010.27 1010.21 1010.35 1010.33 1010.35 1010.49 1010.43 1010.39 1010.40 1010.31 1010.13 1009.98 1009.92 1009.79
1004.11 1003.95 1004.31 1004.84 1005.70 1005.70 1005.09 1004.28 1004.30 1004.83 1005.41 1005.17 1004.72 1004.61 1005.33 1005.44 1005.96 1006.97 1007.49 1008.09 1008.53 1008.73 1008.86 1008.98 1009.25 1009.67 1009.94 1010.25 1010.35 1010.41 1010.60 1010.43 1010.39 1010.45 1010.42 1010.46 1010.47 1010.32 1010.27 1010.09 1010.00 1009.94 1009.74 1009.53
1004.78 1004.79 1005.17 1005.77 1006.42 1006.46 1005.86 1005.82 1005.90 1005.98 1006.42 1005.94 1005.53 1005.14 1005.99 1006.25 1006.96 1007.36 1007.57 1007.71 1008.57 1009.00 1009.20 1009.39 1009.57 1009.91 1010.17 1010.38 1010.44 1010.47 1010.47 1010.51 1010.61 1010.57 1010.43 1010.28 1010.28 1010.32 1010.19 1010.07 1009.94 1009.76 1009.45 1009.13
1005.29 1005.29 1005.24 1005.46 1005.54 1005.70 1006.34 1006.61 1006.70 1006.75 1006.91 1006.46 1005.77 1005.47 1006.02 1006.60 1006.87 1007.00 1007.20 1007.50 1008.47 1008.88 1009.44 1009.53 1009.71 1009.86 1010.23 1010.45 1010.57 1010.57 1010.57 1010.73 1010.66 1010.61 1010.46 1010.28 1010.17 1010.06 1009.95 1009.80 1009.59 1009.30 1008.98 1008.58
1005.53 1005.56 1005.90 1006.42 1006.65 1006.67 1006.61 1006.81 1007.11 1007.03 1007.04 1006.78 1006.01 1005.83 1006.19 1006.64 1007.06 1007.23 1007.51 1008.07 1008.55 1008.85 1009.29 1009.65 1009.79 1010.05 1010.32 1010.51 1010.69 1010.67 1010.76 1010.71 1010.60 1010.45 1010.20 1009.96 1009.72 1009.55 1009.33 1009.10 1008.89 1008.70 1008.50 1008.10
1006.24 1006.39 1006.56 1006.93 1007.49 1007.50 1007.32 1007.19 1007.10 1006.98 1007.08 1007.00 1006.83 1006.66 1006.69 1006.89 1007.28 1007.31 1007.78 1008.42 1008.56 1008.86 1009.27 1009.68 1010.02 1010.26 1010.45 1010.61 1010.72 1010.83 1010.74 1010.58 1010.49 1010.24 1009.84 1009.47 1009.18 1008.86 1008.55 1008.34 1008.14 1007.88 1007.60 1007.33
1006.29 1006.62 1006.99 1006.87 1007.89 1007.85 1007.07 1006.37 1006.41 1006.57 1006.91 1007.07 1006.56 1006.21 1006.75 1007.07 1007.20 1007.52 1007.86 1008.28 1008.61 1008.97 1009.24 1009.61 1009.87 1010.07 1010.27 1010.44 1010.60 1010.49 1010.42 1010.34 1010.09 1009.71 1009.24 1008.82 1008.48 1008.15 1007.84 1007.54 1007.37 1007.14 1006.86 1006.73
1006.72 1007.04 1007.53 1007.23 1008.14 1007.25 1006.77 1007.08 1007.14 1006.70 1006.91 1007.09 1007.22 1007.16 1007.30 1007.59 1007.86 1008.05 1008.17 1008.46 1008.93 1009.17 1009.43 1009.52 1009.60 1009.81 1010.01 1010.22 1010.23 1010.17 1010.15 1009.96 1009.54 1009.03 1008.54 1008.26 1007.91 1007.61 1007.43 1007.21 1006.95 1006.73 1006.75 1006.74
1007.31 1007.53 1008.22 1008.05 1007.62 1006.74 1006.56 1007.54 1007.36 1007.13 1006.92 1007.64 1007.50 1007.50 1007.68 1008.07 1008.57 1008.20 1008.06 1008.95 1009.26 1009.41 1009.51 1009.49 1009.61 1009.73 1009.90 1009.94 1009.91 1009.89 1009.74 1009.46 1009.06 1008.43 1008.11 1007.92 1007.74 1007.58 1007.35 1007.09 1007.23 1007.25 1006.90 1006.71
1008.24 1008.38 1008.96 1009.03 1008.29 1007.14 1007.60 1008.39 1008.50 1008.21 1007.51 1008.48 1008.42 1008.34 1008.75 1009.15 1008.62 1008.61 1009.72 1009.54 1009.55 1009.58 1009.59 1009.61 1009.72 1009.79 1009.67 1009.64 1009.83 1009.73 1009.35 1009.11 1008.59 1008.32 1008.13 1008.11 1008.00 1007.82 1007.72 1007.62 1007.51 1007.72 1007.14 1006.59
1008.20 1008.79 1009.14 1009.07 1008.97 1007.95 1008.10 1008.87 1009.04 1008.64 1009.20 1009.20 1009.31 1009.29 1009.32 1009.34 1009.65 1009.91 1009.70 1009.57 1009.72 1009.77 1009.73 1009.75 1009.83 1009.55 1009.55 1009.67 1009.76 1009.50 1009.20 1008.85 1008.71 1008.53 1008.36 1008.31 1008.21 1008.11 1008.01 1007.94 1007.56 1006.95 1006.44 1005.97
1007.87 1008.32 1008.96 1009.40 1009.75 1008.90 1009.03 1009.35 1009.22 1009.60 1009.64 1009.65 1009.65 1009.70 1009.54 1009.65 1009.61 1009.89 1009.75 1009.65 1009.75 1009.78 1009.76 1009.69 1009.49 1009.41 1009.52 1009.68 1009.59 1009.31 1009.06 1008.94 1008.85 1008.92 1008.78 1008.48 1008.29 1008.48 1008.02 1007.44 1006.76 1006.30 1005.83 1005.15
1007.64 1007.64 1008.32 1008.76 1008.63 1009.28 1009.48 1009.43 1009.95 1010.12 1010.08 1010.00 1009.97 1009.78 1010.00 1010.08 1009.80 1009.70 1009.70 1009.75 1009.63 1009.69 1009.57 1009.51 1009.48 1009.36 1009.39 1009.45 1009.53 1009.23 1009.13 1009.47 1009.43 1009.14 1008.77 1008.68 1008.28 1007.84 1007.33 1006.79 1006.07 1005.45 1004.91 1004.36
1008.41 1008.73 1008.28 1008.91 1008.85 1009.40 1009.77 1009.96 1010.21 1010.21 1010.27 1010.40 1010.35 1010.41 1010.53 1010.26 1010.27 1010.16 1009.95 1009.82 1009.66 1009.60 1009.54 1009.67 1009.61 1009.37 1009.25 1009.43 1009.61 1009.95 1009.93 1009.80 1009.55 1009.26 1008.84 1008.36 1007.81 1007.10 1006.58 1006.03 1005.38 1004.67 1003.90 1003.41
1008.25 1008.64 1008.16 1008.44 1009.00 1009.61 1009.94 1010.33 1010.56 1010.66 1010.71 1010.76 1010.82 1010.93 1010.95 1010.92 1010.73 1010.60 1010.31 1010.10 1009.98 1009.96 1009.92 1009.99 1009.88 1009.65 1009.53 1009.86 1010.28 1010.34 1010.10 1010.16 1009.80 1009.24 1008.65 1008.00 1007.35 1006.63 1005.78 1005.13 1004.41 1003.75 1002.84 1002.56
1008.56 1008.15 1008.46 1008.38 1009.63 1009.88 1010.06 1010.71 1011.07 1010.99 1011.23 1011.63 1011.70 1011.49 1011.45 1011.40 1011.11 1010.96 1010.78 1010.66 1010.53 1010.39 1010.59 1010.30 1010.20 1010.41 1010.63 1010.57 1010.48 1010.38 1010.74 1010.39 1009.81 1009.04 1008.33 1007.62 1006.91 1006.02 1005.25 1004.33 1002.90 1002.31 1001.76 1001.15
Wind_Speed
19 17 18 22 18 12 14 18 12 14 11 21 20 20 17 11 10 9 9 4 3 5 5 4 6 7 8 9 11 13 13 11 10 10 10 10 11 10 10 10 11 10 10 10
14 20 20 20 18 12 11 14 16 13 12 14 18 15 16 9 11 5 2 2 2 4 5 5 5 4 5 7 7 10 11 10 10 8 8 8 8 10 9 9 8 9 10 9
18 17 17 13 16 18 14 14 12 8 8 11 7 15 14 12 7 7 6 3 4 6 7 7 7 6 6 5 4 6 8 9 10 11 7 6 6 6 8 8 8 8 9 9
16 5 16 18 18 17 16 11 9 10 8 11 14 10 13 15 12 8 4 5 5 7 8 9 9 8 6 5 4 4 4 6 8 10 9 10 8 8 8 7 7 7 8 8
11 13 19 18 16 12 8 7 12 12 11 10 11 9 10 9 11 12 4 6 8 8 9 11 12 11 10 9 7 5 2 2 5 6 10 9 11 6 5 5 9 8 8 8
11 10 13 12 10 13 4 9 6 7 9 12 16 12 12 14 12 9 6 8 7 7 9 11 12 12 12 11 11 9 7 5 3 5 7 8 7 7 7 8 8 7 7 7
9 15 8 7 12 11 14 12 8 9 10 9 7 8 6 10 6 4 8 8 8 8 9 10 11 12 13 14 13 12 12 11 9 8 6 6 6 6 8 9 5 5 6 6
14 14 14 11 12 11 16 15 7 9 8 8 8 8 7 7 7 8 8 7 6 6 8 9 10 9 11 12 13 12 11 10 9 8 7 6 3 2 1 3 2 4 5 5
14 8 4 7 6 9 12 12 5 7 1 8 5 8 7 8 8 8 7 6 5 4 5 4 5 6 7 8 8 8 8 9 9 8 6 6 6 6 6 4 4 6 7 8
8 10 7 8 8 5 10 10 9 9 8 12 8 6 5 16 14 11 9 5 3 2 1 2 4 5 5 5 6 7 8 8 7 7 7 6 6 6 6 5 7 8 9 10
9 6 10 9 9 12 9 10 8 7 5 6 8 1 8 9 13 12 7 2 2 5 6 5 5 3 5 5 7 7 7 7 6 6 6 6 6 6 5 6 7 7 8 10
2 5 10 5 5 4 6 9 8 7 9 7 9 9 5 3 9 6 5 0 6 6 6 7 5 6 5 6 6 6 6 7 7 7 7 8 8 8 8 8 9 9 10 11
8 5 6 5 5 4 7 7 8 5 5 12 9 3 4 6 6 8 7 3 7 5 3 3 2 4 4 5 6 7 7 8 8 9 9 9 9 10 11 11 12 13 14 14
2 6 11 4 4 7 8 9 9 11 7 9 12 11 11 9 8 9 11 12 8 5 1 2 1 3 5 6 7 8 8 9 9 10 11 12 12 12 13 13 14 15 15 16
3 7 5 3 4 1 4 8 10 13 13 9 10 7 7 9 12 12 10 9 7 5 3 1 5 6 8 8 9 10 11 11 11 12 13 13 14 14 15 15 16 16 16 17
1 5 5 7 3 5 8 11 13 15 14 14 14 15 12 5 5 5 1 2 4 4 4 5 6 8 9 10 11 11 12 12 13 14 15 15 15 16 16 17 17 17 18 18
6 6 6 8 2 5 12 15 17 16 12 9 12 6 5 6 5 5 4 4 5 7 6 7 8 9 10 11 12 13 13 14 15 16 16 17 17 17 18 17 18 18 18 17
7 8 4 3 5 8 8 5 4 3 5 7 9 8 7 6 6 6 6 7 7 8 8 10 11 12 13 14 14 14 15 15 16 17 17 17 17 18 18 19 19 18 15 16
4 5 3 4 8 7 9 3 1 3 3 4 7 6 5 5 7 12 6 4 8 9 10 11 12 14 15 16 16 16 17 17 17 18 18 18 18 19 19 18 18 17 16 15
6 5 3 2 4 2 8 5 2 1 7 6 4 4 8 8 9 4 5 10 13 13 13 14 15 16 16 16 16 17 18 18 18 18 18 18 18 18 18 19 18 17 14 14
8 6 8 6 4 4 6 4 1 5 6 4 4 7 8 9 8 10 13 13 12 13 14 15 16 16 16 16 16 18 19 18 18 18 18 19 18 18 17 17 14 14 14 16
7 7 5 4 3 7 6 6 6 7 3 6 8 10 13 13 12 12 14 13 14 15 16 17 16 16 16 16 16 18 19 18 18 18 19 19 16 13 13 15 15 15 15 15
6 2 5 7 1 6 3 4 4 5 8 10 12 12 10 12 13 13 13 15 15 17 16 16 16 17 17 16 16 18 19 18 18 18 18 15 16 14 13 14 14 12 12 11
4 5 3 4 7 3 1 4 6 7 8 9 8 10 10 12 12 14 15 16 16 17 16 16 17 18 18 16 17 17 17 17 17 16 16 14 15 15 13 11 10 11 11 10
4 7 7 5 3 3 5 4 5 6 6 7 6 7 9 11 14 16 16 17 16 16 16 16 17 17 19 18 17 16 16 15 15 14 14 14 12 13 13 11 11 11 13 11
6 3 4 2 7 3 6 6 6 5 7 7 9 12 12 14 17 17 16 16 16 16 17 16 17 18 18 17 17 15 14 13 13 14 11 11 11 11 10 11 13 16 21 24
Wind_Direction
194 204 207 201 208 215 197 207 190 209 173 194 220 215 236 215 220 212 210 215 302 339 338 295 247 251 260 250 241 228 221 216 206 207 207 212 213 211 209 213 214 214 222 224
178 213 202 203 210 210 205 211 197 191 182 222 200 225 238 206 217 231 179 163 35 343 5 12 355 358 334 298 277 236 227 214 209 214 222 227 222 211 207 200 199 211 213 219
191 197 206 210 204 211 204 215 181 202 188 223 251 238 219 227 211 163 125 79 48 11 1 10 13 12 343 302 288 228 218 221 214 231 211 216 236 208 197 199 193 198 208 212
206 181 185 201 198 210 209 208 249 222 206 233 197 249 198 211 204 184 135 62 42 30 22 31 28 25 11 353 317 274 235 217 213 209 222 217 221 213 207 197 173 178 187 179
177 172 197 200 204 203 234 188 213 226 222 246 186 249 166 185 203 159 107 69 51 44 42 37 37 33 32 28 32 28 18 200 224 208 236 210 234 201 196 156 161 180 166 174
142 201 192 196 201 202 159 183 169 212 221 223 224 215 203 179 219 126 97 75 73 71 63 52 50 48 41 42 54 56 65 75 143 199 205 220 218 208 180 169 172 171 173 179
159 176 156 187 173 175 201 193 188 206 205 238 114 210 284 102 120 130 121 107 91 81 74 65 58 57 52 53 56 65 66 69 75 88 94 115 140 164 162 158 182 176 195 202
190 171 184 174 201 180 199 203 241 228 213 194 142 237 117 112 129 129 118 111 101 74 67 62 63 66 70 67 61 69 75 75 73 70 73 78 66 86 56 209 328 229 241 231
197 135 138 213 191 248 162 225 337 289 286 283 223 113 133 159 158 157 132 106 78 65 63 47 65 63 70 64 51 45 50 57 42 45 35 33 12 351 346 313 265 250 257 266
198 154 182 150 180 165 273 164 193 216 259 250 232 244 281 176 174 164 157 124 83 38 35 50 39 47 35 64 67 47 45 52 47 37 26 24 15 6 339 313 295 294 285 273
162 230 153 187 208 192 172 206 233 305 296 255 266 178 34 175 178 182 156 121 4 337 335 350 5 60 85 62 47 35 26 31 27 16 8 354 344 333 318 309 301 295 285 273
151 231 167 171 49 331 317 296 213 221 236 252 286 287 65 93 156 183 192 297 3 339 359 5 33 47 42 36 23 38 6 353 356 346 334 328 321 318 304 297 294 289 279 275
172 198 179 180 184 177 231 202 259 297 322 258 248 236 103 127 171 201 242 282 319 329 0 68 101 82 52 18 357 349 342 343 332 325 317 311 306 299 294 289 284 279 275 270
172 192 221 258 52 140 200 213 221 222 217 242 237 254 161 186 232 267 280 299 306 279 240 43 34 25 356 348 340 332 329 326 321 314 306 301 295 292 289 286 281 278 276 274
196 200 223 74 114 163 240 210 205 224 227 244 259 250 264 291 295 291 294 293 273 233 235 286 315 330 327 331 328 321 324 317 314 307 302 297 293 289 286 284 283 282 280 277
170 152 194 186 173 224 243 233 238 238 243 254 263 269 273 288 283 284 336 270 249 250 267 287 301 315 314 321 318 322 312 313 310 302 296 296 293 290 287 286 284 281 278 277
164 157 192 219 186 252 250 239 235 236 232 254 247 280 3 284 281 299 315 293 292 301 298 294 303 304 316 314 316 307 309 307 302 297 295 295 296 293 290 290 288 284 283 283
171 192 149 177 190 227 79 90 23 307 235 232 249 279 283 295 308 293 300 312 313 312 309 312 312 316 315 318 309 310 306 303 299 298 298 298 297 296 295 292 289 291 294 287
229 154 187 213 199 327 203 110 234 250 158 35 303 287 314 321 310 267 269 350 320 322 311 311 315 315 314 309 313 311 305 304 302 301 301 302 304 300 297 296 300 296 289 298
142 212 173 179 227 254 75 113 66 344 243 41 10 2 351 340 282 38 323 319 319 315 312 315 313 310 306 311 313 305 303 303 303 305 306 305 302 300 298 292 300 292 277 280
168 169 193 189 256 296 94 118 87 256 55 33 348 316 302 294 309 304 310 306 309 304 308 311 302 303 306 309 307 301 302 301 307 305 307 305 303 297 303 292 284 280 278 277
167 163 187 159 192 251 135 154 250 36 326 322 307 298 299 302 304 301 298 305 308 303 308 304 305 306 307 307 305 303 302 307 314 312 303 300 304 300 287 283 282 278 276 273
195 200 169 190 181 100 138 49 7 328 314 316 309 316 313 290 295 308 311 305 306 307 305 309 308 305 304 308 310 306 313 318 309 304 303 305 295 289 282 280 279 280 273 269
168 179 232 188 155 200 255 265 285 295 304 308 328 323 319 310 315 309 308 309 308 307 312 312 308 305 308 313 317 316 312 311 310 310 298 297 291 292 287 279 274 272 271 269
40 169 207 221 165 250 121 40 356 322 326 326 336 327 324 316 310 311 309 308 310 310 309 312 309 308 311 323 315 312 316 323 304 301 298 296 291 290 289 281 276 270 267 258
177 179 210 42 81 335 46 25 11 21 26 4 336 323 323 319 313 315 312 313 311 317 314 307 314 325 316 310 311 319 317 305 303 300 299 295 295 291 288 289 293 270 260 266